Orange, MA

5:05 PM EDT on April 25, 2018 (GMT -0400)
Orange Municipal

Weather History for KORE - June, 2012

Change the Weather History Date:

Saturday, June 30, 2012

  Actual Average Record
Temperature  
Mean Temperature 72 °F -  
Max Temperature 90 °F 79 °F 90 °F (2001)
Min Temperature 54 °F 55 °F 46 °F (2007)
Cooling Degree Days 6    
Growing Degree Days 22 (Base 50)    
Moisture  
Dew Point 55 °F    
Average Humidity 58    
Maximum Humidity 93    
Minimum Humidity 26    
Precipitation  
Precipitation 0.00 in - - ()
Sea Level Pressure  
Sea Level Pressure 29.71 in    
Wind  
Wind Speed 4 mph (West)    
Max Wind Speed 18 mph    
Max Gust Speed 28 mph    
Visibility 10 miles    
Events      
Averages and records for this station are not official NWS values.
T = Trace of Precipitation, MM = Missing Value Source: NWS Daily Summary

Daily Weather History Graph

Daily Weather History Graph

Search for Another Location

Airport or City:

Astronomy

Jun. 30, 2012 Rise Set
Actual Time 5:15 AM EDT 8:30 PM EDT
Civil Twilight 4:40 AM EDT 9:05 PM EDT
Nautical Twilight 3:55 AM EDT 9:50 PM EDT
Astronomical Twilight 3:00 AM EDT 10:44 PM EDT
Moon 5:22 PM EDT (6/30) 2:09 AM EDT (6/30)
Length of Visible Light 16h 25m
Length of Day
15h 15m
Waxing Gibbous, 87% of the Moon is Illuminated
Jun 30
Waxing Gibbous
Jul 3
Full
Jul 10
Last Quarter
Jul 19
New
Jul 26
First Quarter

Hourly Weather History & Observations

Time (EDT) Temp. Heat Index Dew Point Humidity Pressure Visibility Wind Dir Wind Speed Gust Speed Precip Events Conditions
12:52 AM 61.0 °F - 55.0 °F 81% 29.68 in 10.0 mi Calm Calm - N/A   Clear
1:52 AM 59.0 °F - 55.0 °F 87% 29.67 in 10.0 mi Calm Calm - N/A   Clear
2:52 AM 57.9 °F - 55.0 °F 90% 29.67 in 10.0 mi Calm Calm - N/A   Clear
3:52 AM 55.9 °F - 54.0 °F 93% 29.68 in 10.0 mi Calm Calm - N/A   Clear
4:52 AM 54.0 °F - 52.0 °F 93% 29.69 in 10.0 mi Calm Calm - N/A   Clear
5:52 AM 55.9 °F - 54.0 °F 93% 29.73 in 10.0 mi Calm Calm - N/A   Clear
7:52 AM 71.1 °F - 57.9 °F 63% 29.74 in 10.0 mi WSW 4.6 mph - N/A   Clear
8:52 AM 77.0 °F - 55.0 °F 47% 29.73 in 10.0 mi WSW 6.9 mph - N/A   Clear
9:52 AM 80.1 °F 80.0 °F 54.0 °F 40% 29.72 in 10.0 mi West 9.2 mph - N/A   Clear
10:52 AM 82.9 °F 81.9 °F 54.0 °F 37% 29.71 in 10.0 mi West 9.2 mph 17.3 mph N/A   Clear
11:52 AM 86.0 °F - 48.9 °F 28% 29.72 in 10.0 mi West 13.8 mph 20.7 mph N/A   Clear
12:52 PM 88.0 °F - 48.9 °F 26% 29.71 in 10.0 mi NW 16.1 mph 24.2 mph N/A   Clear
1:52 PM 89.1 °F - 51.1 °F 27% 29.70 in 10.0 mi NW 18.4 mph 27.6 mph N/A   Clear
3:52 PM 89.1 °F - 51.1 °F 27% 29.69 in 10.0 mi West 11.5 mph 19.6 mph N/A   Clear
4:52 PM 88.0 °F 85.7 °F 53.1 °F 30% 29.69 in 10.0 mi West 8.1 mph - N/A   Clear
5:52 PM 87.1 °F 85.1 °F 54.0 °F 32% 29.70 in 10.0 mi WSW 6.9 mph - N/A   Clear
6:52 PM 86.0 °F 84.5 °F 55.0 °F 35% 29.70 in 10.0 mi SSW 6.9 mph - N/A   Clear
7:52 PM 82.0 °F 82.1 °F 59.0 °F 45% 29.71 in 10.0 mi SW 5.8 mph - N/A   Clear
8:52 PM 73.9 °F - 61.0 °F 64% 29.72 in 10.0 mi SW 4.6 mph - N/A   Clear
9:52 PM 70.0 °F - 62.1 °F 76% 29.74 in 10.0 mi Calm Calm - N/A   Clear
10:52 PM 66.0 °F - 61.0 °F 84% 29.75 in 10.0 mi Calm Calm - N/A   Clear
11:52 PM 64.9 °F - 61.0 °F 87% 29.75 in 10.0 mi Calm Calm - N/A   Clear